Thomson, GA

11:04 AM EDT on October 16, 2019 (GMT -0400)
Thomson-McDuffie County

Weather History for KHQU - August, 2019

Change the Weather History Date:

Sunday, August 25, 2019

  Actual Average (WUND) Record (WUND)
Temperature  
Mean Temperature 72 °F -  
Max Temperature 79 °F - - (-1)
Min Temperature 64 °F - - (-1)
Cooling Degree Days 6    
Growing Degree Days 22 (Base 50)    
Moisture  
Dew Point 66 °F    
Average Humidity 85    
Maximum Humidity 98    
Minimum Humidity 66    
Precipitation  
Precipitation 0.17 in - - ()
Sea Level Pressure  
Sea Level Pressure 30.09 in    
Wind  
Wind Speed 8 mph (ESE)    
Max Wind Speed 13 mph    
Max Gust Speed 17 mph    
Visibility 10 miles    
Events Rain    
Averages and records for this station are not official NWS values.
T = Trace of Precipitation, MM = Missing Value Source: NWS Daily Summary

Daily Weather History Graph

Daily Weather History Graph

Search for Another Location

Airport or City:

Astronomy

Aug. 25, 2019 Rise Set
Actual Time 6:59 AM EDT 8:04 PM EDT
Civil Twilight 6:33 AM EDT 8:30 PM EDT
Nautical Twilight 6:02 AM EDT 9:00 PM EDT
Astronomical Twilight 5:31 AM EDT 9:32 PM EDT
Moon 1:41 AM EDT (8/25) 4:14 PM EDT (8/25)
Length of Visible Light 13h 56m
Length of Day
13h 05m
Waning Crescent, 29% of the Moon is Illuminated
Aug 25
Waning Crescent
Aug 30
New
Sep 5
First Quarter
Sep 14
Full
Sep 21
Last Quarter

Hourly Weather History & Observations

Time (EDT) Temp. Dew Point Humidity Pressure Visibility Wind Dir Wind Speed Gust Speed Precip Events Conditions
12:35 AM 69.1 °F 66.6 °F 92% 30.12 in 10.0 mi ESE 6.9 mph - N/A   Overcast
12:55 AM 68.9 °F 66.7 °F 93% 30.11 in 10.0 mi ESE 9.2 mph - N/A   Overcast
1:15 AM 68.5 °F 66.4 °F 93% 30.11 in 10.0 mi ESE 8.1 mph - N/A   Overcast
1:35 AM 68.9 °F 66.4 °F 92% 30.11 in 10.0 mi East 6.9 mph - N/A   Overcast
1:55 AM 68.5 °F 66.2 °F 92% 30.10 in 10.0 mi ESE 8.1 mph - N/A   Overcast
2:15 AM 68.2 °F 65.8 °F 92% 30.10 in 10.0 mi East 10.4 mph - N/A   Overcast
2:35 AM 68.2 °F 65.7 °F 92% 30.09 in 10.0 mi ESE 6.9 mph - N/A   Overcast
2:55 AM 67.1 °F 65.7 °F 95% 30.09 in 10.0 mi ESE 9.2 mph - 0.02 in Rain Light Rain
3:15 AM 67.3 °F 65.7 °F 95% 30.09 in 10.0 mi ESE 6.9 mph - N/A Rain Light Rain
3:35 AM 66.9 °F 65.7 °F 96% 30.08 in 3.5 mi East 10.4 mph - 0.07 in Rain Heavy Rain
3:55 AM 66.6 °F 65.5 °F 96% 30.08 in 10.0 mi ESE 8.1 mph - 0.09 in Rain Light Rain
4:15 AM 66.4 °F 65.7 °F 98% 30.08 in 5.0 mi ESE 8.1 mph - 0.03 in Rain Rain
4:35 AM 66.2 °F 65.3 °F 97% 30.07 in 7.0 mi East 6.9 mph - 0.06 in Rain Light Rain
4:55 AM 66.2 °F 65.5 °F 98% 30.07 in 10.0 mi East 10.4 mph - 0.06 in Rain Light Rain
5:15 AM 66.0 °F 65.3 °F 98% 30.06 in 10.0 mi East 8.1 mph - N/A   Light Drizzle
5:35 AM 66.0 °F 65.3 °F 98% 30.06 in 10.0 mi East 5.8 mph - N/A   Overcast
5:55 AM 65.7 °F 64.9 °F 98% 30.07 in 10.0 mi ESE 8.1 mph - N/A   Overcast
6:15 AM 65.5 °F 64.6 °F 97% 30.08 in 10.0 mi East 6.9 mph - N/A   Overcast
6:35 AM 65.1 °F 64.2 °F 97% 30.08 in 10.0 mi East 9.2 mph - N/A   Overcast
6:55 AM 64.9 °F 64.0 °F 97% 30.09 in 10.0 mi East 11.5 mph 17.3 mph N/A   Overcast
7:15 AM 64.8 °F 63.5 °F 96% 30.10 in 10.0 mi ESE 9.2 mph - N/A   Overcast
7:35 AM 64.8 °F 63.7 °F 96% 30.11 in 10.0 mi East 8.1 mph - N/A   Overcast
7:55 AM 64.9 °F 63.7 °F 96% 30.12 in 10.0 mi East 9.2 mph - N/A   Overcast
8:15 AM 64.8 °F 63.7 °F 96% 30.12 in 10.0 mi ESE 9.2 mph - N/A Rain Light Rain
8:35 AM 64.9 °F 63.7 °F 96% 30.12 in 10.0 mi East 10.4 mph - N/A   Overcast
8:55 AM 65.3 °F 63.9 °F 95% 30.12 in 10.0 mi ESE 6.9 mph - N/A   Overcast
9:15 AM 65.7 °F 64.0 °F 94% 30.12 in 10.0 mi ESE 8.1 mph - N/A   Overcast
9:35 AM 66.0 °F 63.9 °F 93% 30.12 in 10.0 mi ESE 6.9 mph - N/A   Overcast
9:55 AM 66.7 °F 64.2 °F 92% 30.12 in 10.0 mi ESE 8.1 mph - N/A   Overcast
10:35 AM 68.4 °F 64.8 °F 88% 30.13 in 10.0 mi East 6.9 mph - N/A   Overcast
10:55 AM 68.7 °F 64.2 °F 86% 30.13 in 10.0 mi East 8.1 mph - N/A   Overcast
11:15 AM 69.3 °F 64.2 °F 84% 30.13 in 10.0 mi ESE 8.1 mph - N/A   Overcast
11:35 AM 70.9 °F 64.8 °F 81% 30.12 in 10.0 mi East 5.8 mph - N/A   Overcast
11:55 AM 71.6 °F 64.9 °F 79% 30.11 in 10.0 mi ESE 9.2 mph - N/A   Overcast
12:15 PM 74.3 °F 66.0 °F 75% 30.11 in 10.0 mi ESE 12.7 mph 17.3 mph N/A   Overcast
12:35 PM 74.3 °F 65.3 °F 73% 30.11 in 10.0 mi SE 11.5 mph - N/A   Overcast
12:55 PM 74.8 °F 65.7 °F 73% 30.11 in 10.0 mi ESE 10.4 mph - N/A   Overcast
1:15 PM 73.9 °F 65.7 °F 75% 30.10 in 10.0 mi ESE 8.1 mph - N/A   Overcast
1:35 PM 74.7 °F 66.4 °F 75% 30.10 in 10.0 mi SE 6.9 mph - N/A   Overcast
1:55 PM 75.4 °F 66.0 °F 73% 30.10 in 10.0 mi ESE 8.1 mph - N/A   Overcast
2:15 PM 75.9 °F 66.6 °F 73% 30.09 in 10.0 mi ENE 3.5 mph - N/A   Overcast
2:35 PM 77.4 °F 67.3 °F 71% 30.09 in 10.0 mi SSE 6.9 mph - N/A   Overcast
2:55 PM 78.3 °F 67.3 °F 69% 30.08 in 10.0 mi SE 8.1 mph - N/A   Overcast
3:15 PM 77.9 °F 66.7 °F 68% 30.07 in 10.0 mi ESE 8.1 mph - N/A   Overcast
3:35 PM 78.8 °F 66.9 °F 67% 30.06 in 10.0 mi ESE 10.4 mph - N/A   Overcast
3:55 PM 79.0 °F 66.9 °F 66% 30.05 in 10.0 mi ESE 8.1 mph - N/A   Overcast
4:15 PM 78.8 °F 67.1 °F 67% 30.05 in 10.0 mi ESE 6.9 mph - N/A   Overcast
4:35 PM 78.3 °F 67.6 °F 70% 30.05 in 10.0 mi ESE 6.9 mph - N/A   Overcast
4:55 PM 78.4 °F 67.8 °F 70% 30.04 in 10.0 mi SE 11.5 mph - N/A   Overcast
5:15 PM 77.5 °F 66.9 °F 70% 30.03 in 10.0 mi ESE 10.4 mph - N/A   Overcast
5:35 PM 77.7 °F 66.9 °F 69% 30.04 in 10.0 mi ESE 8.1 mph - N/A   Overcast
5:55 PM 77.2 °F 67.5 °F 72% 30.04 in 10.0 mi ESE 8.1 mph - N/A   Overcast
6:15 PM 76.8 °F 67.5 °F 73% 30.04 in 10.0 mi East 9.2 mph - N/A   Overcast
6:35 PM 76.5 °F 67.8 °F 75% 30.05 in 10.0 mi ESE 8.1 mph - N/A   Overcast
6:55 PM 75.9 °F 67.5 °F 75% 30.05 in 10.0 mi ESE 6.9 mph - N/A   Overcast
7:15 PM 75.6 °F 67.5 °F 76% 30.06 in 10.0 mi East 6.9 mph - N/A   Overcast
7:35 PM 75.0 °F 67.3 °F 77% 30.05 in 10.0 mi ESE 5.8 mph - N/A   Overcast
7:55 PM 74.7 °F 67.1 °F 77% 30.05 in 10.0 mi East 6.9 mph - N/A   Overcast
8:35 PM 73.9 °F 67.3 °F 80% 30.07 in 10.0 mi ESE 4.6 mph - N/A   Overcast
8:55 PM 73.4 °F 67.5 °F 82% 30.08 in 10.0 mi ESE 4.6 mph - N/A   Overcast
9:15 PM 72.5 °F 67.6 °F 85% 30.08 in 10.0 mi ESE 3.5 mph - N/A   Scattered Clouds
9:35 PM 71.2 °F 68.2 °F 90% 30.08 in 10.0 mi SE 4.6 mph - N/A   Clear
9:55 PM 71.6 °F 68.2 °F 89% 30.08 in 10.0 mi SE 4.6 mph - N/A   Scattered Clouds
10:15 PM 71.4 °F 68.2 °F 89% 30.09 in 10.0 mi ESE 3.5 mph - N/A   Scattered Clouds
10:35 PM 71.6 °F 68.2 °F 89% 30.09 in 10.0 mi ESE 4.6 mph - N/A   Clear
10:55 PM 71.6 °F 68.0 °F 88% 30.09 in 10.0 mi ESE 5.8 mph - N/A   Clear
11:15 PM 71.4 °F 68.2 °F 89% 30.09 in 10.0 mi SE 5.8 mph - N/A   Clear
11:35 PM 71.4 °F 67.8 °F 88% 30.09 in 10.0 mi SE 8.1 mph - N/A   Clear
11:55 PM 70.9 °F 67.6 °F 89% 30.10 in 10.0 mi SE 9.2 mph - N/A   Clear